,,Stat5,,Stat1,,Stat2,,Stat3,,Stat4,,Wind1,,Wind1,
time,status,PA1M_AVG,status,PR1M_SUM,status,RH1M_AVG,status,SR1M_AVG,status,TA1M_AVG,status,W1dAve1m,status,W1sAve1m,
2002-06-26, 00:00:01,VALID,920.79,VALID,0,VALID,92.5207,VALID,-0.0339617,VALID,21.0457,VALID,14,VALID,0.284766,
2002-06-26, 00:01:00,VALID,920.789,VALID,0,VALID,92.6567,VALID,-0.0169808,VALID,21.0425,VALID,14,VALID,0.264732,
2002-06-26, 00:02:01,VALID,920.786,VALID,0,VALID,92.7254,VALID,-0.0169808,VALID,21.0393,VALID,14,VALID,0.226792,
2002-06-26, 00:03:00,VALID,920.791,VALID,0,VALID,92.7127,VALID,-0.0509425,VALID,21.0586,VALID,14,VALID,0.278125,
2002-06-26, 00:04:00,VALID,920.799,VALID,0,VALID,92.5359,VALID,-0.0339617,VALID,21.0592,VALID,14,VALID,0.35393,
2002-06-26, 00:05:00,VALID,920.788,VALID,0,VALID,92.733,VALID,-0.0339617,VALID,21.0301,VALID,14,VALID,0.416518,
2002-06-26, 00:06:00,VALID,920.79,VALID,0,VALID,92.9848,VALID,-0.0169808,VALID,21.046,VALID,14,VALID,0.614062,
2002-06-26, 00:07:00,VALID,920.789,VALID,0,VALID,93.0853,VALID,-0.0169808,VALID,21.0522,VALID,18,VALID,0.772768,
2002-06-26, 00:08:01,VALID,920.787,VALID,0,VALID,92.9645,VALID,0,VALID,21.0654,VALID,15,VALID,0.731847,
2002-06-26, 00:09:00,VALID,920.774,VALID,0,VALID,92.8589,VALID,-0.0509425,VALID,21.0624,VALID,16,VALID,0.883398,
2002-06-26, 00:10:00,VALID,920.77,VALID,0,VALID,92.7496,VALID,-0.0339617,VALID,21.0452,VALID,10,VALID,0.868845,
2002-06-26, 00:11:00,VALID,920.775,VALID,0,VALID,92.7089,VALID,-0.0169808,VALID,21.0395,VALID,15,VALID,0.93125,
2002-06-26, 00:12:00,VALID,920.778,VALID,0,VALID,92.7521,VALID,-0.0169808,VALID,21.0298,VALID,11,VALID,0.451172,
2002-06-26, 00:13:00,VALID,920.777,VALID,0,VALID,92.7559,VALID,-0.0509425,VALID,21.0301,VALID,12,VALID,0.177679,
2002-06-26, 00:14:01,VALID,920.793,VALID,0,VALID,92.817,VALID,0,VALID,21.0393,VALID,12,VALID,0.435662,
2002-06-26, 00:15:00,VALID,920.795,VALID,0,VALID,92.822,VALID,-0.0509425,VALID,21.0462,VALID,12,VALID,0.29043,
2002-06-26, 00:16:00,VALID,920.801,VALID,0,VALID,92.7432,VALID,-0.0339617,VALID,21.0559,VALID,14,VALID,0.708333,
2002-06-26, 00:17:00,VALID,920.801,VALID,0,VALID,92.541,VALID,-0.0339617,VALID,21.0296,VALID,14,VALID,0.847545,
2002-06-26, 00:18:00,VALID,920.8,VALID,0,VALID,92.6237,VALID,0,VALID,21.0072,VALID,7,VALID,0.742969,
2002-06-26, 00:19:00,VALID,920.791,VALID,0,VALID,92.6186,VALID,-0.0339617,VALID,20.9714,VALID,347,VALID,1.02321,
2002-06-26, 00:20:01,VALID,920.777,VALID,0,VALID,92.6784,VALID,-0.0509425,VALID,20.956,VALID,6,VALID,0.535846,
2002-06-26, 00:21:00,VALID,920.772,VALID,0,VALID,92.7839,VALID,0,VALID,20.9593,VALID,8,VALID,0.420508,
2002-06-26, 00:22:00,VALID,920.78,VALID,0,VALID,92.8844,VALID,-0.0169808,VALID,20.9326,VALID,17,VALID,0.657907,
2002-06-26, 00:23:00,VALID,920.782,VALID,0,VALID,92.9085,VALID,-0.0339617,VALID,20.9393,VALID,3,VALID,0.60558,
2002-06-26, 00:24:00,VALID,920.781,VALID,0,VALID,92.8551,VALID,-0.0169808,VALID,20.9167,VALID,6,VALID,0.645898,
2002-06-26, 00:25:01,VALID,920.772,VALID,0,VALID,92.8462,VALID,-0.0169808,VALID,20.8941,VALID,348,VALID,0.720982,
2002-06-26, 00:26:01,VALID,920.767,VALID,0,VALID,92.9734,VALID,-0.0849042,VALID,20.8747,VALID,8,VALID,0.618566,
2002-06-26, 00:27:00,VALID,920.768,VALID,0,VALID,93.0446,VALID,-0.0509425,VALID,20.8586,VALID,355,VALID,0.60918,
2002-06-26, 00:28:01,VALID,920.77,VALID,0,VALID,93.1603,VALID,-0.0679233,VALID,20.8357,VALID,358,VALID,0.678977,
2002-06-26, 00:29:00,VALID,920.749,VALID,0,VALID,93.187,VALID,-0.0509425,VALID,20.8424,VALID,360,VALID,0.785714,
2002-06-26, 00:30:00,VALID,920.74,VALID,0,VALID,93.2938,VALID,-0.0679233,VALID,20.8193,VALID,5,VALID,0.732422,
2002-06-26, 00:31:01,VALID,920.724,VALID,0,VALID,93.3243,VALID,-0.0509425,VALID,20.8166,VALID,3,VALID,0.628571,
2002-06-26, 00:32:01,VALID,920.724,VALID,0,VALID,93.3561,VALID,-0.0679233,VALID,20.8101,VALID,344,VALID,0.616958,
2002-06-26, 00:33:00,VALID,920.722,VALID,0,VALID,93.3218,VALID,-0.0679233,VALID,20.7974,VALID,334,VALID,0.623438,
2002-06-26, 00:34:01,VALID,920.714,VALID,0,VALID,93.4286,VALID,-0.0679233,VALID,20.7974,VALID,341,VALID,0.507102,
2002-06-26, 00:35:01,VALID,920.696,VALID,0,VALID,93.4388,VALID,-0.0849042,VALID,20.8042,VALID,357,VALID,0.527902,
2002-06-26, 00:36:01,VALID,920.679,VALID,0,VALID,93.4044,VALID,-0.0509425,VALID,20.781,VALID,357,VALID,0.47207,
2002-06-26, 00:37:01,VALID,920.669,VALID,0,VALID,93.4871,VALID,-0.0679233,VALID,20.7807,VALID,8,VALID,0.726339,
2002-06-26, 00:38:01,VALID,920.639,VALID,0,VALID,93.4757,VALID,-0.0509425,VALID,20.7681,VALID,9,VALID,0.758502,
2002-06-26, 00:39:01,VALID,920.618,VALID,0,VALID,93.5113,VALID,-0.0339617,VALID,20.7587,VALID,7,VALID,0.554492,
2002-06-26, 00:40:01,VALID,920.587,VALID,0,VALID,93.5888,VALID,-0.0679233,VALID,20.729,VALID,14,VALID,0.362453,
2002-06-26, 00:41:01,VALID,920.556,VALID,0,VALID,93.5316,VALID,-0.0849042,VALID,20.7231,VALID,23,VALID,0.439286,
2002-06-26, 00:42:01,VALID,920.521,VALID,0,VALID,93.5825,VALID,-0.0849042,VALID,20.7099,VALID,29,VALID,0.463867,
2002-06-26, 00:43:01,VALID,920.514,VALID,0,VALID,93.6766,VALID,-0.0339617,VALID,20.7042,VALID,32,VALID,0.3875,
2002-06-26, 00:44:01,VALID,920.509,VALID,0,VALID,93.6931,VALID,-0.0679233,VALID,20.6811,VALID,31,VALID,0.488971,
2002-06-26, 00:45:01,VALID,920.507,VALID,0,VALID,93.7503,VALID,-0.0509425,VALID,20.662,VALID,30,VALID,0.32793,
2002-06-26, 00:46:01,VALID,920.49,VALID,0,VALID,93.8457,VALID,-0.0679233,VALID,20.6456,VALID,34,VALID,0.410985,
2002-06-26, 00:47:01,VALID,920.482,VALID,0,VALID,93.8584,VALID,-0.0339617,VALID,20.6195,VALID,39,VALID,0.45625,
2002-06-26, 00:48:01,VALID,920.468,VALID,0,VALID,93.8737,VALID,-0.0679233,VALID,20.5971,VALID,53,VALID,0.728711,
2002-06-26, 00:49:01,VALID,920.433,VALID,0,VALID,93.9016,VALID,-0.0169808,VALID,20.5874,VALID,64,VALID,1.10246,
2002-06-26, 00:50:01,VALID,920.393,VALID,0,VALID,93.8915,VALID,0,VALID,20.578,VALID,70,VALID,0.960938,
2002-06-26, 00:51:01,VALID,920.349,VALID,0,VALID,93.8635,VALID,0,VALID,20.5554,VALID,79,VALID,1.20156,
2002-06-26, 00:52:01,VALID,920.309,VALID,0,VALID,94.1038,VALID,-0.0169808,VALID,20.5258,VALID,73,VALID,1.35085,
2002-06-26, 00:53:01,VALID,920.283,VALID,0,VALID,93.8953,VALID,-0.0169808,VALID,20.526,VALID,75,VALID,0.908705,
2002-06-26, 00:54:01,VALID,920.294,VALID,0,VALID,93.8711,VALID,-0.0679233,VALID,20.5002,VALID,73,VALID,0.916602,
2002-06-26, 00:55:00,VALID,920.315,VALID,0,VALID,94.0975,VALID,-0.0339617,VALID,20.4579,VALID,72,VALID,0.695536,
2002-06-26, 00:56:00,VALID,920.33,VALID,0,VALID,94.3111,VALID,0,VALID,20.439,VALID,60,VALID,0.347426,
2002-06-26, 00:57:00,VALID,920.325,VALID,0,VALID,94.2475,VALID,-0.0339617,VALID,20.4134,VALID,60,VALID,0.0304688,
2002-06-26, 00:58:00,VALID,920.318,VALID,0,VALID,94.1089,VALID,-0.0169808,VALID,20.3717,VALID,60,VALID,0,
2002-06-26, 00:59:00,VALID,920.309,VALID,0,VALID,94.1026,VALID,-0.0169808,VALID,20.3491,VALID,60,VALID,0,
2002-06-26, 01:00:00,VALID,920.305,VALID,0,VALID,94.1636,VALID,-0.0679233,VALID,20.3197,VALID,38,VALID,0.0962891,
2002-06-26, 01:01:00,VALID,920.319,VALID,0,VALID,94.3454,VALID,-0.0679233,VALID,20.3095,VALID,5,VALID,0.326786,
2002-06-26, 01:02:00,VALID,920.326,VALID,0,VALID,94.3988,VALID,-0.0679233,VALID,20.3222,VALID,357,VALID,0.0997243,
2002-06-26, 01:03:00,VALID,920.328,VALID,0,VALID,94.367,VALID,-0.0509425,VALID,20.3362,VALID,357,VALID,0,
2002-06-26, 01:04:00,VALID,920.318,VALID,0,VALID,94.3289,VALID,-0.0679233,VALID,20.3458,VALID,357,VALID,0,
2002-06-26, 01:05:00,VALID,920.319,VALID,0,VALID,94.3264,VALID,-0.0849042,VALID,20.3486,VALID,347,VALID,0.06875,
2002-06-26, 01:06:00,VALID,920.308,VALID,0,VALID,94.2043,VALID,-0.0169808,VALID,20.365,VALID,347,VALID,0,
2002-06-26, 01:07:00,VALID,920.328,VALID,0,VALID,93.9525,VALID,-0.0679233,VALID,20.3588,VALID,347,VALID,0,
2002-06-26, 01:08:00,VALID,920.328,VALID,0,VALID,93.9016,VALID,-0.0509425,VALID,20.3294,VALID,336,VALID,0.190487,
2002-06-26, 01:09:00,VALID,920.328,VALID,0,VALID,93.7109,VALID,-0.0849042,VALID,20.3073,VALID,335,VALID,0,
2002-06-26, 01:10:00,VALID,920.318,VALID,0,VALID,93.8533,VALID,-0.0509425,VALID,20.2812,VALID,340,VALID,0.0736269,
2002-06-26, 01:11:00,VALID,920.323,VALID,0,VALID,93.7058,VALID,0.0339617,VALID,20.2414,VALID,355,VALID,0.290179,
2002-06-26, 01:12:00,VALID,920.318,VALID,0,VALID,93.9652,VALID,0.0679233,VALID,20.2049,VALID,355,VALID,0.148242,
2002-06-26, 01:13:00,VALID,920.306,VALID,0,VALID,94.2462,VALID,0.0509425,VALID,20.183,VALID,355,VALID,0.0325893,
2002-06-26, 01:14:00,VALID,920.293,VALID,0,VALID,94.3442,VALID,0.0679233,VALID,20.1507,VALID,355,VALID,0,
2002-06-26, 01:15:00,VALID,920.275,VALID,0,VALID,94.2907,VALID,0.0339617,VALID,20.1087,VALID,355,VALID,0,
2002-06-26, 01:16:00,VALID,920.264,VALID,0,VALID,94.3391,VALID,0.0509425,VALID,20.0834,VALID,355,VALID,0,
2002-06-26, 01:17:00,VALID,920.258,VALID,0,VALID,94.5057,VALID,0.0509425,VALID,20.0536,VALID,355,VALID,0,
2002-06-26, 01:18:00,VALID,920.251,VALID,0,VALID,94.6659,VALID,0.0169808,VALID,20.0474,VALID,355,VALID,0.0457031,
2002-06-26, 01:19:00,VALID,920.243,VALID,0,VALID,94.7956,VALID,0.0509425,VALID,20.0444,VALID,355,VALID,0,
2002-06-26, 01:20:00,VALID,920.236,VALID,0,VALID,94.8744,VALID,0.0679233,VALID,20.0215,VALID,355,VALID,0.0597426,
2002-06-26, 01:21:00,VALID,920.224,VALID,0,VALID,94.9596,VALID,0.0679233,VALID,19.9924,VALID,355,VALID,0.090625,
2002-06-26, 01:22:00,VALID,920.195,VALID,0,VALID,95.0982,VALID,0.0339617,VALID,19.9736,VALID,355,VALID,0,
2002-06-26, 01:23:00,VALID,920.175,VALID,0,VALID,95.0741,VALID,0.0169808,VALID,19.9542,VALID,355,VALID,0,
2002-06-26, 01:24:00,VALID,920.157,VALID,0,VALID,94.9278,VALID,0.0509425,VALID,19.902,VALID,355,VALID,0,
2002-06-26, 01:25:00,VALID,920.162,VALID,0,VALID,95.1173,VALID,0,VALID,19.8888,VALID,352,VALID,0.122098,
2002-06-26, 01:26:00,VALID,920.173,VALID,0,VALID,94.5451,VALID,0,VALID,19.8289,VALID,352,VALID,0,
2002-06-26, 01:27:00,VALID,920.18,VALID,0,VALID,94.5552,VALID,0.0169808,VALID,19.7671,VALID,352,VALID,0,
2002-06-26, 01:28:00,VALID,920.186,VALID,0,VALID,95.1821,VALID,0.0339617,VALID,19.7671,VALID,352,VALID,0,
2002-06-26, 01:29:00,VALID,920.19,VALID,0,VALID,95.5992,VALID,0,VALID,19.8053,VALID,352,VALID,0,
2002-06-26, 01:30:00,VALID,920.167,VALID,0,VALID,95.7658,VALID,0.0339617,VALID,19.8379,VALID,352,VALID,0,
2002-06-26, 01:31:00,VALID,920.175,VALID,0,VALID,95.9845,VALID,0.0509425,VALID,19.8933,VALID,352,VALID,0,
2002-06-26, 01:32:00,VALID,920.163,VALID,0,VALID,95.7862,VALID,0.0339617,VALID,19.8998,VALID,352,VALID,0,
2002-06-26, 01:33:00,VALID,920.174,VALID,0,VALID,94.9049,VALID,0,VALID,19.7668,VALID,352,VALID,0,
2002-06-26, 01:34:00,VALID,920.159,VALID,0,VALID,95.2508,VALID,0.0169808,VALID,19.7218,VALID,352,VALID,0,
2002-06-26, 01:35:00,VALID,920.145,VALID,0,VALID,95.1694,VALID,0.0679233,VALID,19.6764,VALID,352,VALID,0,
2002-06-26, 01:36:00,VALID,920.141,VALID,0,VALID,95.4911,VALID,0.0339617,VALID,19.6699,VALID,352,VALID,0,
2002-06-26, 01:37:00,VALID,920.136,VALID,0,VALID,95.5852,VALID,0.0339617,VALID,19.6605,VALID,352,VALID,0,
2002-06-26, 01:38:00,VALID,920.117,VALID,0,VALID,95.79,VALID,0.0169808,VALID,19.6702,VALID,352,VALID,0,
2002-06-26, 01:39:00,VALID,920.112,VALID,0,VALID,96.1893,VALID,0.0169808,VALID,19.7186,VALID,352,VALID,0.0488281,
2002-06-26, 01:40:00,VALID,920.093,VALID,0,VALID,96.4563,VALID,0,VALID,19.7897,VALID,352,VALID,0.0236742,
2002-06-26, 01:41:00,VALID,920.078,VALID,0,VALID,96.4181,VALID,0,VALID,19.819,VALID,352,VALID,0,
2002-06-26, 01:42:00,VALID,920.076,VALID,0,VALID,96.0443,VALID,-0.0679233,VALID,19.8237,VALID,352,VALID,0,
2002-06-26, 01:43:00,VALID,920.052,VALID,0,VALID,95.9464,VALID,-0.101885,VALID,19.7981,VALID,352,VALID,0,
2002-06-26, 01:44:00,VALID,920.055,VALID,0,VALID,95.3576,VALID,-0.0509425,VALID,19.7268,VALID,352,VALID,0,
2002-06-26, 01:45:00,VALID,920.056,VALID,0,VALID,95.3958,VALID,-0.0679233,VALID,19.646,VALID,352,VALID,0,
2002-06-26, 01:46:00,VALID,920.052,VALID,0,VALID,95.4555,VALID,-0.101885,VALID,19.617,VALID,352,VALID,0,
2002-06-26, 01:47:00,VALID,920.062,VALID,0,VALID,95.5064,VALID,-0.0509425,VALID,19.5847,VALID,352,VALID,0,
2002-06-26, 01:48:00,VALID,920.052,VALID,0,VALID,95.6666,VALID,-0.0849042,VALID,19.569,VALID,352,VALID,0,
2002-06-26, 01:49:00,VALID,920.04,VALID,0,VALID,95.6056,VALID,-0.0849042,VALID,19.5491,VALID,352,VALID,0,
2002-06-26, 01:50:00,VALID,920.036,VALID,0,VALID,95.6119,VALID,-0.0509425,VALID,19.5325,VALID,352,VALID,0,
2002-06-26, 01:51:00,VALID,920.02,VALID,0,VALID,95.701,VALID,-0.0849042,VALID,19.5198,VALID,352,VALID,0,
2002-06-26, 01:52:00,VALID,919.998,VALID,0,VALID,95.865,VALID,-0.0849042,VALID,19.5399,VALID,352,VALID,0,
2002-06-26, 01:53:00,VALID,919.985,VALID,0,VALID,96.0278,VALID,-0.0509425,VALID,19.5593,VALID,352,VALID,0,
2002-06-26, 01:54:00,VALID,919.964,VALID,0,VALID,96.0036,VALID,-0.0679233,VALID,19.5394,VALID,352,VALID,0,
2002-06-26, 01:55:00,VALID,919.955,VALID,0,VALID,96.0519,VALID,-0.0849042,VALID,19.53,VALID,352,VALID,0,
2002-06-26, 01:56:00,VALID,919.956,VALID,0,VALID,96.1727,VALID,-0.0169808,VALID,19.5163,VALID,352,VALID,0,
2002-06-26, 01:57:00,VALID,919.956,VALID,0,VALID,96.2299,VALID,0.0169808,VALID,19.5191,VALID,352,VALID,0,
2002-06-26, 01:58:00,VALID,919.985,VALID,0,VALID,95.9705,VALID,0,VALID,19.4806,VALID,352,VALID,0,
2002-06-26, 01:59:00,VALID,919.987,VALID,0,VALID,96.1015,VALID,0,VALID,19.4679,VALID,352,VALID,0,
2002-06-26, 02:00:00,VALID,919.998,VALID,0,VALID,96.1727,VALID,-0.0169808,VALID,19.4644,VALID,352,VALID,0,
2002-06-26, 02:01:00,VALID,920.006,VALID,0,VALID,95.715,VALID,-0.0169808,VALID,19.4068,VALID,2,VALID,0.27433,
2002-06-26, 02:02:00,VALID,919.995,VALID,0,VALID,95.3144,VALID,0,VALID,19.2935,VALID,36,VALID,0.677619,
2002-06-26, 02:03:00,VALID,919.992,VALID,0,VALID,95.8828,VALID,-0.0169808,VALID,19.2704,VALID,40,VALID,0.594141,
2002-06-26, 02:04:00,VALID,919.977,VALID,0,VALID,96.3062,VALID,0,VALID,19.3096,VALID,39,VALID,0.536932,
2002-06-26, 02:05:00,VALID,919.982,VALID,0,VALID,96.7589,VALID,0,VALID,19.3742,VALID,24,VALID,0.4875,
2002-06-26, 02:06:00,VALID,919.964,VALID,0,VALID,96.8022,VALID,0,VALID,19.3874,VALID,11,VALID,1.01855,
2002-06-26, 02:07:00,VALID,919.961,VALID,0,VALID,97.1404,VALID,0,VALID,19.4157,VALID,14,VALID,1.02455,
2002-06-26, 02:08:00,VALID,919.951,VALID,0,VALID,97.466,VALID,0,VALID,19.4778,VALID,13,VALID,1.27459,
2002-06-26, 02:09:00,VALID,919.947,VALID,0,VALID,97.6465,VALID,0,VALID,19.526,VALID,10,VALID,0.936914,
2002-06-26, 02:10:00,VALID,919.935,VALID,0,VALID,97.6198,VALID,0.0169808,VALID,19.5295,VALID,357,VALID,0.581439,
2002-06-26, 02:11:00,VALID,919.928,VALID,0,VALID,97.7215,VALID,0,VALID,19.5618,VALID,357,VALID,0.460491,
2002-06-26, 02:12:00,VALID,919.923,VALID,0,VALID,97.7292,VALID,0,VALID,19.5837,VALID,360,VALID,0.360547,
2002-06-26, 02:13:00,VALID,919.909,VALID,0,VALID,97.6274,VALID,0,VALID,19.5713,VALID,352,VALID,0.479241,
2002-06-26, 02:14:00,VALID,919.902,VALID,0,VALID,97.6745,VALID,0,VALID,19.5713,VALID,355,VALID,0.35386,
2002-06-26, 02:15:00,VALID,919.884,VALID,0,VALID,97.5982,VALID,0,VALID,19.5678,VALID,358,VALID,0.302344,
2002-06-26, 02:16:00,VALID,919.854,VALID,0,VALID,97.4596,VALID,0.0169808,VALID,19.5417,VALID,359,VALID,0.222775,
2002-06-26, 02:17:00,VALID,919.795,VALID,0,VALID,97.5206,VALID,0,VALID,19.5223,VALID,20,VALID,0.353571,
2002-06-26, 02:18:00,VALID,919.754,VALID,0,VALID,97.6719,VALID,0.0169808,VALID,19.5481,VALID,23,VALID,0.323438,
2002-06-26, 02:19:00,VALID,919.714,VALID,0,VALID,97.7279,VALID,0.0169808,VALID,19.571,VALID,23,VALID,0.285045,
2002-06-26, 02:20:00,VALID,919.679,VALID,0,VALID,97.6122,VALID,0,VALID,19.5643,VALID,23,VALID,0.310202,
2002-06-26, 02:21:00,VALID,919.634,VALID,0,VALID,97.4672,VALID,-0.0169808,VALID,19.5389,VALID,23,VALID,0.198828,
2002-06-26, 02:22:00,VALID,919.585,VALID,0,VALID,97.5435,VALID,-0.0169808,VALID,19.5258,VALID,23,VALID,0.000710227,
2002-06-26, 02:23:00,VALID,919.562,VALID,0,VALID,97.6249,VALID,0,VALID,19.5318,VALID,23,VALID,0.15067,
2002-06-26, 02:24:00,VALID,919.529,VALID,0,VALID,97.6211,VALID,0.0169808,VALID,19.535,VALID,27,VALID,0.296875,
2002-06-26, 02:25:00,VALID,919.53,VALID,0,VALID,97.3846,VALID,0,VALID,19.4965,VALID,29,VALID,0.433036,
2002-06-26, 02:26:00,VALID,919.54,VALID,0,VALID,96.7704,VALID,0.0169808,VALID,19.3675,VALID,29,VALID,0.35432,
2002-06-26, 02:27:00,VALID,919.551,VALID,0,VALID,96.3393,VALID,0,VALID,19.2385,VALID,29,VALID,0.392188,
2002-06-26, 02:28:00,VALID,919.579,VALID,0,VALID,96.1613,VALID,0,VALID,19.1093,VALID,22,VALID,0.536695,
2002-06-26, 02:29:00,VALID,919.59,VALID,0,VALID,96.7322,VALID,0,VALID,19.1158,VALID,16,VALID,0.500893,
2002-06-26, 02:30:00,VALID,919.615,VALID,0,VALID,97.2345,VALID,0.0339617,VALID,19.161,VALID,8,VALID,0.817187,
2002-06-26, 02:31:00,VALID,919.604,VALID,0,VALID,97.7355,VALID,0,VALID,19.2706,VALID,9,VALID,0.909821,
2002-06-26, 02:32:00,VALID,919.591,VALID,0,VALID,97.7571,VALID,0.0169808,VALID,19.323,VALID,7,VALID,0.746553,
2002-06-26, 02:33:00,VALID,919.582,VALID,0,VALID,97.6402,VALID,0,VALID,19.3265,VALID,7,VALID,0.549805,
2002-06-26, 02:34:00,VALID,919.554,VALID,0,VALID,97.6974,VALID,0,VALID,19.3449,VALID,360,VALID,0.484612,
2002-06-26, 02:35:00,VALID,919.542,VALID,0,VALID,97.7063,VALID,0,VALID,19.3675,VALID,334,VALID,0.202455,
2002-06-26, 02:36:00,VALID,919.514,VALID,0,VALID,97.5613,VALID,0,VALID,19.374,VALID,331,VALID,0.0439453,
2002-06-26, 02:37:00,VALID,919.485,VALID,0,VALID,97.6592,VALID,0,VALID,19.4194,VALID,326,VALID,0.234598,
2002-06-26, 02:38:00,VALID,919.472,VALID,0,VALID,97.7012,VALID,0.0169808,VALID,19.4485,VALID,273,VALID,0.346967,
2002-06-26, 02:39:00,VALID,919.469,VALID,0,VALID,97.5651,VALID,0.0339617,VALID,19.4254,VALID,268,VALID,0.308008,
2002-06-26, 02:40:00,VALID,919.461,VALID,0,VALID,97.6872,VALID,0,VALID,19.4617,VALID,268,VALID,0.426373,
2002-06-26, 02:41:00,VALID,919.466,VALID,0,VALID,97.7101,VALID,0.0169808,VALID,19.4776,VALID,268,VALID,0.166518,
2002-06-26, 02:42:00,VALID,919.461,VALID,0,VALID,97.7724,VALID,0,VALID,19.4942,VALID,267,VALID,0.386328,
2002-06-26, 02:43:00,VALID,919.447,VALID,0,VALID,97.8118,VALID,0,VALID,19.5037,VALID,265,VALID,0.280134,
2002-06-26, 02:44:00,VALID,919.45,VALID,0,VALID,97.8131,VALID,0,VALID,19.5198,VALID,258,VALID,0.259191,
2002-06-26, 02:45:00,VALID,919.448,VALID,0,VALID,97.7266,VALID,0,VALID,19.5066,VALID,259,VALID,0.0181641,
2002-06-26, 02:46:00,VALID,919.441,VALID,0,VALID,97.6033,VALID,0,VALID,19.4741,VALID,259,VALID,0.152699,
2002-06-26, 02:47:00,VALID,919.437,VALID,0,VALID,97.5473,VALID,0,VALID,19.4647,VALID,271,VALID,0.271875,
2002-06-26, 02:48:00,VALID,919.432,VALID,0,VALID,97.6071,VALID,0,VALID,19.4972,VALID,307,VALID,0.205273,
2002-06-26, 02:49:00,VALID,919.43,VALID,0,VALID,97.3159,VALID,0.0339617,VALID,19.4192,VALID,318,VALID,0.111384,
2002-06-26, 02:50:00,VALID,919.418,VALID,0,VALID,96.8225,VALID,0.0169808,VALID,19.326,VALID,338,VALID,0.120864,
2002-06-26, 02:51:00,VALID,919.391,VALID,0,VALID,96.113,VALID,0,VALID,19.1451,VALID,10,VALID,0.0765625,
2002-06-26, 02:52:00,VALID,919.376,VALID,0,VALID,96.2032,VALID,0,VALID,19.0671,VALID,10,VALID,0.0582386,
2002-06-26, 02:53:00,VALID,919.378,VALID,0,VALID,96.4181,VALID,0,VALID,19.0221,VALID,10,VALID,0.308036,
2002-06-26, 02:54:00,VALID,919.382,VALID,0,VALID,96.675,VALID,0,VALID,19.0122,VALID,352,VALID,0.430859,
2002-06-26, 02:55:00,VALID,919.387,VALID,0,VALID,97.2116,VALID,0,VALID,19.0837,VALID,336,VALID,0.0582589,
2002-06-26, 02:56:00,VALID,919.406,VALID,0,VALID,97.1913,VALID,0.0169808,VALID,19.0835,VALID,338,VALID,0.0912224,
2002-06-26, 02:57:00,VALID,919.403,VALID,0,VALID,97.2396,VALID,0.0679233,VALID,19.0838,VALID,341,VALID,0,
2002-06-26, 02:58:00,VALID,919.411,VALID,0,VALID,97.3884,VALID,0.0339617,VALID,19.1061,VALID,341,VALID,0,
2002-06-26, 02:59:00,VALID,919.411,VALID,0,VALID,97.3464,VALID,0.0679233,VALID,19.1029,VALID,341,VALID,0,
2002-06-26, 03:00:00,VALID,919.392,VALID,0,VALID,97.321,VALID,0.0679233,VALID,19.0902,VALID,341,VALID,0,
2002-06-26, 03:01:00,VALID,919.376,VALID,0,VALID,97.3184,VALID,0.0509425,VALID,19.0997,VALID,341,VALID,0.0368304,
2002-06-26, 03:02:00,VALID,919.369,VALID,0,VALID,97.3337,VALID,0.0339617,VALID,19.0833,VALID,345,VALID,0.0225184,
2002-06-26, 03:03:00,VALID,919.341,VALID,0,VALID,97.4927,VALID,0.0339617,VALID,19.1615,VALID,10,VALID,0.0460938,
2002-06-26, 03:04:00,VALID,919.34,VALID,0,VALID,97.5486,VALID,0.0339617,VALID,19.1737,VALID,359,VALID,0.227509,
2002-06-26, 03:05:00,VALID,919.336,VALID,0,VALID,97.6732,VALID,0.0169808,VALID,19.236,VALID,355,VALID,0.0805804,
2002-06-26, 03:06:00,VALID,919.329,VALID,0,VALID,97.321,VALID,0.0339617,VALID,19.2097,VALID,356,VALID,0.235352,
2002-06-26, 03:07:00,VALID,919.324,VALID,0,VALID,97.0272,VALID,0.0339617,VALID,19.1352,VALID,7,VALID,0.381027,
2002-06-26, 03:08:00,VALID,919.317,VALID,0,VALID,97.2154,VALID,0.0679233,VALID,19.1414,VALID,9,VALID,0.678768,
2002-06-26, 03:09:00,VALID,919.319,VALID,0,VALID,97.1773,VALID,0.0339617,VALID,19.1518,VALID,9,VALID,0.467773,
2002-06-26, 03:10:00,VALID,919.334,VALID,0,VALID,97.1786,VALID,0.0169808,VALID,19.1354,VALID,9,VALID,0.591383,
2002-06-26, 03:11:00,VALID,919.354,VALID,0,VALID,97.1709,VALID,0.0509425,VALID,19.1126,VALID,10,VALID,0.623884,
2002-06-26, 03:12:00,VALID,919.348,VALID,0,VALID,97.1328,VALID,0.0339617,VALID,19.0872,VALID,9,VALID,0.755273,
2002-06-26, 03:13:00,VALID,919.359,VALID,0,VALID,97.3515,VALID,0.0509425,VALID,19.0837,VALID,360,VALID,0.891071,
2002-06-26, 03:14:00,VALID,919.362,VALID,0,VALID,97.6974,VALID,0.0679233,VALID,19.1451,VALID,4,VALID,0.964384,
2002-06-26, 03:15:00,VALID,919.345,VALID,0,VALID,97.7432,VALID,0.0679233,VALID,19.1966,VALID,11,VALID,0.65957,
2002-06-26, 03:16:00,VALID,919.342,VALID,0,VALID,97.5511,VALID,0.0679233,VALID,19.1901,VALID,13,VALID,0.617898,
2002-06-26, 03:17:00,VALID,919.324,VALID,0,VALID,97.2917,VALID,0.0509425,VALID,19.197,VALID,8,VALID,0.759821,
2002-06-26, 03:18:00,VALID,919.3,VALID,0,VALID,97.1213,VALID,0.0169808,VALID,19.2005,VALID,13,VALID,0.595703,
2002-06-26, 03:19:00,VALID,919.288,VALID,0,VALID,96.8759,VALID,0.0679233,VALID,19.1672,VALID,15,VALID,0.525223,
2002-06-26, 03:20:00,VALID,919.269,VALID,0,VALID,96.7958,VALID,0.0169808,VALID,19.1615,VALID,13,VALID,0.620404,
2002-06-26, 03:21:00,VALID,919.253,VALID,0,VALID,96.8607,VALID,0,VALID,19.1777,VALID,6,VALID,0.763672,
2002-06-26, 03:22:00,VALID,919.242,VALID,0,VALID,96.8492,VALID,0.0339617,VALID,19.2167,VALID,7,VALID,0.873106,
2002-06-26, 03:23:00,VALID,919.212,VALID,0,VALID,96.7793,VALID,0,VALID,19.236,VALID,11,VALID,0.993973,
2002-06-26, 03:24:00,VALID,919.196,VALID,0,VALID,96.6686,VALID,0.0339617,VALID,19.2517,VALID,11,VALID,0.848242,
2002-06-26, 03:25:00,VALID,919.181,VALID,0,VALID,96.511,VALID,0.0679233,VALID,19.2584,VALID,19,VALID,0.798661,
2002-06-26, 03:26:00,VALID,919.165,VALID,0,VALID,96.4143,VALID,0.0339617,VALID,19.2423,VALID,20,VALID,1.01471,
2002-06-26, 03:27:00,VALID,919.165,VALID,0,VALID,96.0138,VALID,0.0169808,VALID,19.2003,VALID,12,VALID,0.958789,
2002-06-26, 03:28:00,VALID,919.168,VALID,0,VALID,96.1969,VALID,0.0509425,VALID,19.1643,VALID,7,VALID,1.1044,
2002-06-26, 03:29:00,VALID,919.147,VALID,0,VALID,96.4805,VALID,0.0679233,VALID,19.2097,VALID,10,VALID,1.11942,
2002-06-26, 03:30:00,VALID,919.153,VALID,0,VALID,96.4754,VALID,0.0679233,VALID,19.2452,VALID,8,VALID,1.13633,
2002-06-26, 03:31:00,VALID,919.148,VALID,0,VALID,96.3062,VALID,0.0169808,VALID,19.2679,VALID,16,VALID,1.00625,
2002-06-26, 03:32:00,VALID,919.142,VALID,0,VALID,96.1384,VALID,0.0849042,VALID,19.2711,VALID,26,VALID,0.807215,
2002-06-26, 03:33:00,VALID,919.125,VALID,0,VALID,95.9578,VALID,0.0509425,VALID,19.252,VALID,35,VALID,0.756055,
2002-06-26, 03:34:00,VALID,919.116,VALID,0,VALID,95.9527,VALID,0.0509425,VALID,19.2385,VALID,44,VALID,0.734848,
2002-06-26, 03:35:00,VALID,919.088,VALID,0,VALID,95.9438,VALID,0.0849042,VALID,19.2356,VALID,49,VALID,0.688616,
2002-06-26, 03:36:00,VALID,919.072,VALID,0,VALID,95.8879,VALID,0.0169808,VALID,19.2296,VALID,42,VALID,0.65,